Overview Statistics Trail Chart Weather Telemetry Raw packets
 

This is the latest recevied weather packets stored in our database for station/object DM8MH-13. If no packets are shown the sender has not sent any weather packets the latest 10 day(s).

<< 33 34 35 36 37 38 39 >>
Time Temp. Humidity Pressure Rain* Wind** Luminosity Snow
1788075670 21.67° C 70% 1010.6 hPa 0 mm - 393 W/m² -
1788075071 21.11° C 75% 1010.6 hPa 0 mm - 248 W/m² -
1788074470 20.56° C 77% 1010.6 hPa 0 mm - 187 W/m² -
1788073871 20.56° C 76% 1010.8 hPa 0 mm - 132 W/m² -
1788073270 20.56° C 77% 1010.6 hPa 0 mm - 123 W/m² -
1788072671 20° C 77% 1010.6 hPa 0 mm - 99 W/m² -
1788072071 20.56° C 75% 1010.5 hPa 0 mm - 125 W/m² -
1788071472 20.56° C 72% 1010.5 hPa 0 mm - 148 W/m² -
1788070878 20.56° C 72% 1010.4 hPa 0 mm - 187 W/m² -
1788070271 20.56° C 72% 1010.4 hPa 0 mm - 198 W/m² -
1788069670 20.56° C 72% 1010.4 hPa 0 mm - 174 W/m² -
1788069070 20.56° C 72% 1010.3 hPa 0 mm - 149 W/m² -
1788068470 20.56° C 72% 1010.4 hPa 0 mm - 116 W/m² -
1788067871 20° C 72% 1010.4 hPa 0 mm - 93 W/m² -
1788067271 20° C 73% 1010.4 hPa 0 mm - 61 W/m² -
1788066670 19.44° C 73% 1010.3 hPa 0 mm - 43 W/m² -
1788066070 19.44° C 73% 1010.4 hPa 0 mm - 15 W/m² -
1788065471 20° C 73% 1010.3 hPa 0 mm - 11 W/m² -
1788064871 20° C 73% 1010.2 hPa 0 mm - 7 W/m² -
1788064271 20° C 73% 1010.2 hPa 0 mm - 1 W/m² -
1788063684 20° C 72% 1010.2 hPa 0 mm - 0 W/m² -
1788063072 20.56° C 72% 1010.2 hPa 0 mm - 0 W/m² -
1788062472 20.56° C 71% 1010.2 hPa 0 mm - 0 W/m² -
1788061872 20.56° C 71% 1010.2 hPa 0 mm - 0 W/m² -
1788061271 20.56° C 71% 1010.2 hPa 0 mm - 0 W/m² -

* Rain latest hour (hover to see other rain measurements)
** Current wind speed in m/s (hover to see current wind gust speed)